owner,sensor,date,latitude,longitude,relative_humidity,qcFlag 
COMPS,ioos:station:USF.COMPS:C12:1,2019-09-01T00:35:00,27.4980,-83.7220,75.79,11111222 
COMPS,ioos:station:USF.COMPS:C12:1,2019-09-01T01:35:00,27.4980,-83.7220,80.11,11111222 
COMPS,ioos:station:USF.COMPS:C12:1,2019-09-01T02:35:00,27.4980,-83.7220,80.12,11111222 
COMPS,ioos:station:USF.COMPS:C12:1,2019-09-01T03:35:00,27.4980,-83.7220,77.44,11111222 
COMPS,ioos:station:USF.COMPS:C12:1,2019-09-01T04:35:00,27.4980,-83.7220,76.42,11111222 
COMPS,ioos:station:USF.COMPS:C12:1,2019-09-01T05:35:00,27.4980,-83.7220,77.82,11111222 
COMPS,ioos:station:USF.COMPS:C12:1,2019-09-01T06:35:00,27.4980,-83.7220,79.97,11111222 
COMPS,ioos:station:USF.COMPS:C12:1,2019-09-01T07:35:00,27.4980,-83.7220,82.82,11111222 
COMPS,ioos:station:USF.COMPS:C12:1,2019-09-01T08:35:00,27.4980,-83.7220,81.74,11111222 
COMPS,ioos:station:USF.COMPS:C12:1,2019-09-01T09:35:00,27.4980,-83.7220,81.58,11111222 
COMPS,ioos:station:USF.COMPS:C12:1,2019-09-01T10:35:00,27.4980,-83.7220,81.87,11111222 
COMPS,ioos:station:USF.COMPS:C12:1,2019-09-01T11:35:00,27.4980,-83.7220,82.84,11111222 
COMPS,ioos:station:USF.COMPS:C12:1,2019-09-01T12:35:00,27.4980,-83.7220,81.35,11111222 
COMPS,ioos:station:USF.COMPS:C12:1,2019-09-01T13:35:00,27.4980,-83.7220,80.82,11111222 
COMPS,ioos:station:USF.COMPS:C12:1,2019-09-01T14:35:00,27.4980,-83.7220,80.76,11111222 
COMPS,ioos:station:USF.COMPS:C12:1,2019-09-01T15:35:00,27.4980,-83.7220,81.99,11111222 
COMPS,ioos:station:USF.COMPS:C12:1,2019-09-01T16:35:00,27.4980,-83.7220,82.58,11111222 
COMPS,ioos:station:USF.COMPS:C12:1,2019-09-01T17:35:00,27.4980,-83.7220,81.35,11111222 
COMPS,ioos:station:USF.COMPS:C12:1,2019-09-01T18:35:00,27.4980,-83.7220,79.63,11111222 
COMPS,ioos:station:USF.COMPS:C12:1,2019-09-01T19:35:00,27.4980,-83.7220,78.61,11111222 
COMPS,ioos:station:USF.COMPS:C12:1,2019-09-01T20:35:00,27.4980,-83.7220,80.41,11111222 
COMPS,ioos:station:USF.COMPS:C12:1,2019-09-01T21:35:00,27.4980,-83.7220,81.89,11111222 
COMPS,ioos:station:USF.COMPS:C12:1,2019-09-01T22:35:00,27.4980,-83.7220,82.18,11111222 
COMPS,ioos:station:USF.COMPS:C12:1,2019-09-01T23:35:00,27.4980,-83.7220,81.27,11111222 
COMPS,ioos:station:USF.COMPS:C12:1,2019-09-02T01:35:00,27.4980,-83.7220,80.3,11111222 
COMPS,ioos:station:USF.COMPS:C12:1,2019-09-02T02:35:00,27.4980,-83.7220,80.41,11111222 
COMPS,ioos:station:USF.COMPS:C12:1,2019-09-02T03:35:00,27.4980,-83.7220,81.68,11111222 
COMPS,ioos:station:USF.COMPS:C12:1,2019-09-02T04:35:00,27.4980,-83.7220,79.91,11111222 
COMPS,ioos:station:USF.COMPS:C12:1,2019-09-02T05:35:00,27.4980,-83.7220,81.28,11111222 
COMPS,ioos:station:USF.COMPS:C12:1,2019-09-02T06:35:00,27.4980,-83.7220,80.59,11111222 
COMPS,ioos:station:USF.COMPS:C12:1,2019-09-02T07:35:00,27.4980,-83.7220,81.51,11111222 
COMPS,ioos:station:USF.COMPS:C12:1,2019-09-02T08:35:00,27.4980,-83.7220,81.86,11111222 
COMPS,ioos:station:USF.COMPS:C12:1,2019-09-02T09:35:00,27.4980,-83.7220,83.15,11111222 
COMPS,ioos:station:USF.COMPS:C12:1,2019-09-02T10:35:00,27.4980,-83.7220,82.5,11111222 
COMPS,ioos:station:USF.COMPS:C12:1,2019-09-02T11:35:00,27.4980,-83.7220,82.38,11111222 
COMPS,ioos:station:USF.COMPS:C12:1,2019-09-02T12:35:00,27.4980,-83.7220,81.67,11111222 
COMPS,ioos:station:USF.COMPS:C12:1,2019-09-02T15:35:00,27.4980,-83.7220,83.52,11111222 
COMPS,ioos:station:USF.COMPS:C12:1,2019-09-02T16:35:00,27.4980,-83.7220,82.26,11111222 
COMPS,ioos:station:USF.COMPS:C12:1,2019-09-02T17:35:00,27.4980,-83.7220,83.97,11111222 
COMPS,ioos:station:USF.COMPS:C12:1,2019-09-02T18:35:00,27.4980,-83.7220,81.38,11111222 
COMPS,ioos:station:USF.COMPS:C12:1,2019-09-02T19:35:00,27.4980,-83.7220,83.11,11111222 
COMPS,ioos:station:USF.COMPS:C12:1,2019-09-02T20:35:00,27.4980,-83.7220,83.79,11111222 
COMPS,ioos:station:USF.COMPS:C12:1,2019-09-02T21:35:00,27.4980,-83.7220,83.35,11111222 
COMPS,ioos:station:USF.COMPS:C12:1,2019-09-02T22:35:00,27.4980,-83.7220,82.94,11111222 
COMPS,ioos:station:USF.COMPS:C12:1,2019-09-02T23:35:00,27.4980,-83.7220,81.14,11111222 
COMPS,ioos:station:USF.COMPS:C12:1,2019-09-03T00:35:00,27.4980,-83.7220,82.71,11111222 
COMPS,ioos:station:USF.COMPS:C12:1,2019-09-03T01:35:00,27.4980,-83.7220,82.19,11111222 
COMPS,ioos:station:USF.COMPS:C12:1,2019-09-03T02:35:00,27.4980,-83.7220,82.58,11111222 
COMPS,ioos:station:USF.COMPS:C12:1,2019-09-03T03:35:00,27.4980,-83.7220,81.18,11111222 
COMPS,ioos:station:USF.COMPS:C12:1,2019-09-03T04:35:00,27.4980,-83.7220,79.96,11111222 
COMPS,ioos:station:USF.COMPS:C12:1,2019-09-03T05:35:00,27.4980,-83.7220,80.26,11111222 
COMPS,ioos:station:USF.COMPS:C12:1,2019-09-03T06:35:00,27.4980,-83.7220,80.76,11111222 
COMPS,ioos:station:USF.COMPS:C12:1,2019-09-03T07:35:00,27.4980,-83.7220,81.29,11111222 
COMPS,ioos:station:USF.COMPS:C12:1,2019-09-03T08:35:00,27.4980,-83.7220,81.45,11111222 
COMPS,ioos:station:USF.COMPS:C12:1,2019-09-03T09:35:00,27.4980,-83.7220,82.66,11111222 
COMPS,ioos:station:USF.COMPS:C12:1,2019-09-03T10:35:00,27.4980,-83.7220,82.25,11111222 
COMPS,ioos:station:USF.COMPS:C12:1,2019-09-03T11:35:00,27.4980,-83.7220,83.07,11111222 
COMPS,ioos:station:USF.COMPS:C12:1,2019-09-03T12:35:00,27.4980,-83.7220,81.97,11111222 
COMPS,ioos:station:USF.COMPS:C12:1,2019-09-03T13:35:00,27.4980,-83.7220,79.66,11111222 
COMPS,ioos:station:USF.COMPS:C12:1,2019-09-03T14:35:00,27.4980,-83.7220,80.88,11111222 
COMPS,ioos:station:USF.COMPS:C12:1,2019-09-03T15:35:00,27.4980,-83.7220,81.37,11111222 
COMPS,ioos:station:USF.COMPS:C12:1,2019-09-03T16:35:00,27.4980,-83.7220,81.32,11111222 
COMPS,ioos:station:USF.COMPS:C12:1,2019-09-03T17:35:00,27.4980,-83.7220,81.95,11111222 
COMPS,ioos:station:USF.COMPS:C12:1,2019-09-03T18:35:00,27.4980,-83.7220,82.2,11111222 
COMPS,ioos:station:USF.COMPS:C12:1,2019-09-03T19:35:00,27.4980,-83.7220,82.32,11111222 
COMPS,ioos:station:USF.COMPS:C12:1,2019-09-03T20:35:00,27.4980,-83.7220,83.66,11111222 
COMPS,ioos:station:USF.COMPS:C12:1,2019-09-03T21:35:00,27.4980,-83.7220,79.0,11111222 
COMPS,ioos:station:USF.COMPS:C12:1,2019-09-03T22:35:00,27.4980,-83.7220,81.99,11111222 
COMPS,ioos:station:USF.COMPS:C12:1,2019-09-03T23:35:00,27.4980,-83.7220,79.03,11111222 
COMPS,ioos:station:USF.COMPS:C12:1,2019-09-04T00:35:00,27.4980,-83.7220,75.97,11111222 
COMPS,ioos:station:USF.COMPS:C12:1,2019-09-04T01:35:00,27.4980,-83.7220,78.34,11111222 
COMPS,ioos:station:USF.COMPS:C12:1,2019-09-04T02:35:00,27.4980,-83.7220,79.22,11111222 
COMPS,ioos:station:USF.COMPS:C12:1,2019-09-04T03:35:00,27.4980,-83.7220,79.15,11111222 
COMPS,ioos:station:USF.COMPS:C12:1,2019-09-04T04:35:00,27.4980,-83.7220,79.41,11111222 
COMPS,ioos:station:USF.COMPS:C12:1,2019-09-04T05:35:00,27.4980,-83.7220,78.18,11111222 
COMPS,ioos:station:USF.COMPS:C12:1,2019-09-04T06:35:00,27.4980,-83.7220,77.22,11111222 
COMPS,ioos:station:USF.COMPS:C12:1,2019-09-04T07:35:00,27.4980,-83.7220,76.55,11111222 
COMPS,ioos:station:USF.COMPS:C12:1,2019-09-04T08:35:00,27.4980,-83.7220,77.38,11111222 
COMPS,ioos:station:USF.COMPS:C12:1,2019-09-04T09:35:00,27.4980,-83.7220,75.48,11111222 
COMPS,ioos:station:USF.COMPS:C12:1,2019-09-04T10:35:00,27.4980,-83.7220,75.61,11111222 
COMPS,ioos:station:USF.COMPS:C12:1,2019-09-04T11:35:00,27.4980,-83.7220,74.19,11111222 
COMPS,ioos:station:USF.COMPS:C12:1,2019-09-04T12:35:00,27.4980,-83.7220,74.99,11111222 
COMPS,ioos:station:USF.COMPS:C12:1,2019-09-04T13:35:00,27.4980,-83.7220,74.68,11111222 
COMPS,ioos:station:USF.COMPS:C12:1,2019-09-04T14:35:00,27.4980,-83.7220,75.41,11111222 
COMPS,ioos:station:USF.COMPS:C12:1,2019-09-04T15:35:00,27.4980,-83.7220,75.84,11111222 
COMPS,ioos:station:USF.COMPS:C12:1,2019-09-04T16:35:00,27.4980,-83.7220,76.65,11111222 
COMPS,ioos:station:USF.COMPS:C12:1,2019-09-04T17:35:00,27.4980,-83.7220,77.39,11111222 
COMPS,ioos:station:USF.COMPS:C12:1,2019-09-04T18:35:00,27.4980,-83.7220,76.91,11111222 
COMPS,ioos:station:USF.COMPS:C12:1,2019-09-04T19:35:00,27.4980,-83.7220,76.43,11111222 
COMPS,ioos:station:USF.COMPS:C12:1,2019-09-04T20:35:00,27.4980,-83.7220,76.63,11111222 
COMPS,ioos:station:USF.COMPS:C12:1,2019-09-04T21:35:00,27.4980,-83.7220,75.64,11111222 
COMPS,ioos:station:USF.COMPS:C12:1,2019-09-04T22:35:00,27.4980,-83.7220,75.29,11111222 
COMPS,ioos:station:USF.COMPS:C12:1,2019-09-04T23:35:00,27.4980,-83.7220,74.61,11111222 
COMPS,ioos:station:USF.COMPS:C12:1,2019-09-05T00:35:00,27.4980,-83.7220,74.02,11111222 
COMPS,ioos:station:USF.COMPS:C12:1,2019-09-05T01:35:00,27.4980,-83.7220,76.13,11111222 
COMPS,ioos:station:USF.COMPS:C12:1,2019-09-05T02:35:00,27.4980,-83.7220,78.8,11111222 
COMPS,ioos:station:USF.COMPS:C12:1,2019-09-05T03:35:00,27.4980,-83.7220,79.63,11111222 
COMPS,ioos:station:USF.COMPS:C12:1,2019-09-05T04:35:00,27.4980,-83.7220,79.82,11111222 
COMPS,ioos:station:USF.COMPS:C12:1,2019-09-05T05:35:00,27.4980,-83.7220,80.45,11111222 
COMPS,ioos:station:USF.COMPS:C12:1,2019-09-05T06:35:00,27.4980,-83.7220,81.68,11111222 
COMPS,ioos:station:USF.COMPS:C12:1,2019-09-05T07:35:00,27.4980,-83.7220,82.3,11111222 
COMPS,ioos:station:USF.COMPS:C12:1,2019-09-05T08:35:00,27.4980,-83.7220,82.85,11111222 
COMPS,ioos:station:USF.COMPS:C12:1,2019-09-05T09:35:00,27.4980,-83.7220,83.34,11111222 
COMPS,ioos:station:USF.COMPS:C12:1,2019-09-05T10:35:00,27.4980,-83.7220,83.64,11111222 
COMPS,ioos:station:USF.COMPS:C12:1,2019-09-05T11:35:00,27.4980,-83.7220,85.17,11111222 
COMPS,ioos:station:USF.COMPS:C12:1,2019-09-05T12:35:00,27.4980,-83.7220,84.43,11111222 
COMPS,ioos:station:USF.COMPS:C12:1,2019-09-05T13:35:00,27.4980,-83.7220,85.52,11111222 
COMPS,ioos:station:USF.COMPS:C12:1,2019-09-05T14:35:00,27.4980,-83.7220,87.1,11111222 
COMPS,ioos:station:USF.COMPS:C12:1,2019-09-05T15:35:00,27.4980,-83.7220,86.81,11111222 
COMPS,ioos:station:USF.COMPS:C12:1,2019-09-05T16:35:00,27.4980,-83.7220,87.42,11111222 
COMPS,ioos:station:USF.COMPS:C12:1,2019-09-05T17:35:00,27.4980,-83.7220,88.23,11111222 
COMPS,ioos:station:USF.COMPS:C12:1,2019-09-05T18:35:00,27.4980,-83.7220,88.75,11111222 
COMPS,ioos:station:USF.COMPS:C12:1,2019-09-05T19:35:00,27.4980,-83.7220,88.84,11111222 
COMPS,ioos:station:USF.COMPS:C12:1,2019-09-05T20:35:00,27.4980,-83.7220,88.06,11111222 
COMPS,ioos:station:USF.COMPS:C12:1,2019-09-05T21:35:00,27.4980,-83.7220,87.82,11111222 
COMPS,ioos:station:USF.COMPS:C12:1,2019-09-05T22:35:00,27.4980,-83.7220,87.65,11111222 
COMPS,ioos:station:USF.COMPS:C12:1,2019-09-05T23:35:00,27.4980,-83.7220,88.36,11111222 
COMPS,ioos:station:USF.COMPS:C12:1,2019-09-06T00:35:00,27.4980,-83.7220,87.51,11111222 
COMPS,ioos:station:USF.COMPS:C12:1,2019-09-06T01:35:00,27.4980,-83.7220,87.32,11111222 
COMPS,ioos:station:USF.COMPS:C12:1,2019-09-06T02:35:00,27.4980,-83.7220,84.16,11111222 
COMPS,ioos:station:USF.COMPS:C12:1,2019-09-06T03:35:00,27.4980,-83.7220,80.26,11111222 
COMPS,ioos:station:USF.COMPS:C12:1,2019-09-06T04:35:00,27.4980,-83.7220,78.57,11111222 
COMPS,ioos:station:USF.COMPS:C12:1,2019-09-06T06:35:00,27.4980,-83.7220,79.71,11111222 
COMPS,ioos:station:USF.COMPS:C12:1,2019-09-06T07:35:00,27.4980,-83.7220,80.68,11111222 
COMPS,ioos:station:USF.COMPS:C12:1,2019-09-06T08:35:00,27.4980,-83.7220,82.52,11111222 
COMPS,ioos:station:USF.COMPS:C12:1,2019-09-06T09:35:00,27.4980,-83.7220,83.17,11111222 
COMPS,ioos:station:USF.COMPS:C12:1,2019-09-06T10:35:00,27.4980,-83.7220,83.53,11111222 
COMPS,ioos:station:USF.COMPS:C12:1,2019-09-06T11:35:00,27.4980,-83.7220,84.25,11111222 
COMPS,ioos:station:USF.COMPS:C12:1,2019-09-06T12:35:00,27.4980,-83.7220,86.23,11111222 
COMPS,ioos:station:USF.COMPS:C12:1,2019-09-06T13:35:00,27.4980,-83.7220,87.27,11111222 
COMPS,ioos:station:USF.COMPS:C12:1,2019-09-06T14:35:00,27.4980,-83.7220,87.56,11111222 
COMPS,ioos:station:USF.COMPS:C12:1,2019-09-06T15:35:00,27.4980,-83.7220,88.02,11111222 
COMPS,ioos:station:USF.COMPS:C12:1,2019-09-06T16:35:00,27.4980,-83.7220,88.77,11111222 
COMPS,ioos:station:USF.COMPS:C12:1,2019-09-06T17:35:00,27.4980,-83.7220,88.78,11111222 
COMPS,ioos:station:USF.COMPS:C12:1,2019-09-06T18:35:00,27.4980,-83.7220,88.95,11111222 
COMPS,ioos:station:USF.COMPS:C12:1,2019-09-06T19:35:00,27.4980,-83.7220,88.31,11111222 
COMPS,ioos:station:USF.COMPS:C12:1,2019-09-06T20:35:00,27.4980,-83.7220,88.47,11111222 
COMPS,ioos:station:USF.COMPS:C12:1,2019-09-06T21:35:00,27.4980,-83.7220,74.26,11111222 
COMPS,ioos:station:USF.COMPS:C12:1,2019-09-06T22:35:00,27.4980,-83.7220,75.98,11111222 
COMPS,ioos:station:USF.COMPS:C12:1,2019-09-06T23:35:00,27.4980,-83.7220,77.85,11111222 
COMPS,ioos:station:USF.COMPS:C12:1,2019-09-07T00:35:00,27.4980,-83.7220,75.13,11111222 
COMPS,ioos:station:USF.COMPS:C12:1,2019-09-07T01:35:00,27.4980,-83.7220,71.75,11111222 
COMPS,ioos:station:USF.COMPS:C12:1,2019-09-07T02:35:00,27.4980,-83.7220,76.28,11111222 
COMPS,ioos:station:USF.COMPS:C12:1,2019-09-07T03:35:00,27.4980,-83.7220,74.34,11111222 
COMPS,ioos:station:USF.COMPS:C12:1,2019-09-07T04:35:00,27.4980,-83.7220,72.73,11111222 
COMPS,ioos:station:USF.COMPS:C12:1,2019-09-07T05:35:00,27.4980,-83.7220,66.03,11111222 
COMPS,ioos:station:USF.COMPS:C12:1,2019-09-07T06:35:00,27.4980,-83.7220,66.24,11111222 
COMPS,ioos:station:USF.COMPS:C12:1,2019-09-07T07:35:00,27.4980,-83.7220,66.98,11111222 
COMPS,ioos:station:USF.COMPS:C12:1,2019-09-07T08:35:00,27.4980,-83.7220,67.46,11111222 
COMPS,ioos:station:USF.COMPS:C12:1,2019-09-07T09:35:00,27.4980,-83.7220,66.01,11111222 
COMPS,ioos:station:USF.COMPS:C12:1,2019-09-07T10:35:00,27.4980,-83.7220,64.36,11111222 
COMPS,ioos:station:USF.COMPS:C12:1,2019-09-07T11:35:00,27.4980,-83.7220,68.26,11111222 
COMPS,ioos:station:USF.COMPS:C12:1,2019-09-07T12:35:00,27.4980,-83.7220,67.41,11111222 
COMPS,ioos:station:USF.COMPS:C12:1,2019-09-07T13:35:00,27.4980,-83.7220,67.69,11111222 
COMPS,ioos:station:USF.COMPS:C12:1,2019-09-07T14:35:00,27.4980,-83.7220,69.67,11111222 
COMPS,ioos:station:USF.COMPS:C12:1,2019-09-07T15:35:00,27.4980,-83.7220,69.96,11111222 
COMPS,ioos:station:USF.COMPS:C12:1,2019-09-07T16:35:00,27.4980,-83.7220,70.72,11111222 
COMPS,ioos:station:USF.COMPS:C12:1,2019-09-07T17:35:00,27.4980,-83.7220,72.1,11111222 
COMPS,ioos:station:USF.COMPS:C12:1,2019-09-07T18:35:00,27.4980,-83.7220,72.34,11111222 
COMPS,ioos:station:USF.COMPS:C12:1,2019-09-07T19:35:00,27.4980,-83.7220,67.5,11111222 
COMPS,ioos:station:USF.COMPS:C12:1,2019-09-07T20:35:00,27.4980,-83.7220,64.6,11111222 
COMPS,ioos:station:USF.COMPS:C12:1,2019-09-07T21:35:00,27.4980,-83.7220,65.12,11111222 
COMPS,ioos:station:USF.COMPS:C12:1,2019-09-07T22:35:00,27.4980,-83.7220,65.41,11111222 
COMPS,ioos:station:USF.COMPS:C12:1,2019-09-07T23:35:00,27.4980,-83.7220,67.94,11111222 
COMPS,ioos:station:USF.COMPS:C12:1,2019-09-08T00:35:00,27.4980,-83.7220,66.44,11111222 
COMPS,ioos:station:USF.COMPS:C12:1,2019-09-08T01:35:00,27.4980,-83.7220,64.18,11111222 
COMPS,ioos:station:USF.COMPS:C12:1,2019-09-08T02:35:00,27.4980,-83.7220,67.26,11111222 
COMPS,ioos:station:USF.COMPS:C12:1,2019-09-08T03:35:00,27.4980,-83.7220,64.62,11111222 
COMPS,ioos:station:USF.COMPS:C12:1,2019-09-08T04:35:00,27.4980,-83.7220,65.78,11111222 
COMPS,ioos:station:USF.COMPS:C12:1,2019-09-08T05:35:00,27.4980,-83.7220,65.12,11111222 
COMPS,ioos:station:USF.COMPS:C12:1,2019-09-08T06:35:00,27.4980,-83.7220,64.76,11111222 
COMPS,ioos:station:USF.COMPS:C12:1,2019-09-08T07:35:00,27.4980,-83.7220,64.91,11111222 
COMPS,ioos:station:USF.COMPS:C12:1,2019-09-08T08:35:00,27.4980,-83.7220,63.76,11111222 
COMPS,ioos:station:USF.COMPS:C12:1,2019-09-08T09:35:00,27.4980,-83.7220,63.71,11111222 
COMPS,ioos:station:USF.COMPS:C12:1,2019-09-08T10:35:00,27.4980,-83.7220,62.4,11111222 
COMPS,ioos:station:USF.COMPS:C12:1,2019-09-08T11:35:00,27.4980,-83.7220,63.63,11111222 
COMPS,ioos:station:USF.COMPS:C12:1,2019-09-08T12:35:00,27.4980,-83.7220,60.15,11111222 
COMPS,ioos:station:USF.COMPS:C12:1,2019-09-08T13:35:00,27.4980,-83.7220,61.32,11111222 
COMPS,ioos:station:USF.COMPS:C12:1,2019-09-08T14:35:00,27.4980,-83.7220,61.62,11111222 
COMPS,ioos:station:USF.COMPS:C12:1,2019-09-08T15:35:00,27.4980,-83.7220,61.13,11111222 
COMPS,ioos:station:USF.COMPS:C12:1,2019-09-08T16:35:00,27.4980,-83.7220,62.75,11111222 
COMPS,ioos:station:USF.COMPS:C12:1,2019-09-08T17:35:00,27.4980,-83.7220,63.61,11111222 
COMPS,ioos:station:USF.COMPS:C12:1,2019-09-08T18:35:00,27.4980,-83.7220,66.54,11111222 
COMPS,ioos:station:USF.COMPS:C12:1,2019-09-08T19:35:00,27.4980,-83.7220,66.53,11111222 
COMPS,ioos:station:USF.COMPS:C12:1,2019-09-08T20:35:00,27.4980,-83.7220,68.53,11111222 
COMPS,ioos:station:USF.COMPS:C12:1,2019-09-08T21:35:00,27.4980,-83.7220,66.46,11111222 
COMPS,ioos:station:USF.COMPS:C12:1,2019-09-08T22:35:00,27.4980,-83.7220,66.35,11111222 
COMPS,ioos:station:USF.COMPS:C12:1,2019-09-08T23:35:00,27.4980,-83.7220,67.62,11111222 
COMPS,ioos:station:USF.COMPS:C12:1,2019-09-09T00:35:00,27.4980,-83.7220,69.16,11111222 
COMPS,ioos:station:USF.COMPS:C12:1,2019-09-09T01:35:00,27.4980,-83.7220,69.91,11111222 
COMPS,ioos:station:USF.COMPS:C12:1,2019-09-09T02:35:00,27.4980,-83.7220,67.84,11111222 
COMPS,ioos:station:USF.COMPS:C12:1,2019-09-09T03:35:00,27.4980,-83.7220,68.79,11111222 
COMPS,ioos:station:USF.COMPS:C12:1,2019-09-09T04:35:00,27.4980,-83.7220,70.37,11111222 
COMPS,ioos:station:USF.COMPS:C12:1,2019-09-09T05:35:00,27.4980,-83.7220,70.37,11111222 
COMPS,ioos:station:USF.COMPS:C12:1,2019-09-09T06:35:00,27.4980,-83.7220,71.18,11111222 
COMPS,ioos:station:USF.COMPS:C12:1,2019-09-09T07:35:00,27.4980,-83.7220,72.35,11111222 
COMPS,ioos:station:USF.COMPS:C12:1,2019-09-09T08:35:00,27.4980,-83.7220,72.27,11111222 
COMPS,ioos:station:USF.COMPS:C12:1,2019-09-09T09:35:00,27.4980,-83.7220,73.0,11111222 
COMPS,ioos:station:USF.COMPS:C12:1,2019-09-09T10:35:00,27.4980,-83.7220,74.14,11111222 
COMPS,ioos:station:USF.COMPS:C12:1,2019-09-09T11:35:00,27.4980,-83.7220,74.56,11111222 
COMPS,ioos:station:USF.COMPS:C12:1,2019-09-09T12:35:00,27.4980,-83.7220,74.96,11111222 
COMPS,ioos:station:USF.COMPS:C12:1,2019-09-09T13:35:00,27.4980,-83.7220,75.38,11111222 
COMPS,ioos:station:USF.COMPS:C12:1,2019-09-09T14:35:00,27.4980,-83.7220,75.88,11111222 
COMPS,ioos:station:USF.COMPS:C12:1,2019-09-09T15:35:00,27.4980,-83.7220,76.3,11111222 
COMPS,ioos:station:USF.COMPS:C12:1,2019-09-09T16:35:00,27.4980,-83.7220,76.74,11111222 
COMPS,ioos:station:USF.COMPS:C12:1,2019-09-09T17:35:00,27.4980,-83.7220,76.8,11111222 
COMPS,ioos:station:USF.COMPS:C12:1,2019-09-09T21:35:00,27.4980,-83.7220,76.85,11111222 
COMPS,ioos:station:USF.COMPS:C12:1,2019-09-09T22:35:00,27.4980,-83.7220,75.98,11111222 
COMPS,ioos:station:USF.COMPS:C12:1,2019-09-09T23:35:00,27.4980,-83.7220,75.55,11111222 
COMPS,ioos:station:USF.COMPS:C12:1,2019-09-10T00:35:00,27.4980,-83.7220,77.55,11111222 
COMPS,ioos:station:USF.COMPS:C12:1,2019-09-10T01:35:00,27.4980,-83.7220,77.22,11111222 
COMPS,ioos:station:USF.COMPS:C12:1,2019-09-10T02:35:00,27.4980,-83.7220,76.78,11111222 
COMPS,ioos:station:USF.COMPS:C12:1,2019-09-10T03:35:00,27.4980,-83.7220,76.35,11111222 
COMPS,ioos:station:USF.COMPS:C12:1,2019-09-10T04:35:00,27.4980,-83.7220,80.01,11111222 
COMPS,ioos:station:USF.COMPS:C12:1,2019-09-10T05:35:00,27.4980,-83.7220,81.06,11111222 
COMPS,ioos:station:USF.COMPS:C12:1,2019-09-10T06:35:00,27.4980,-83.7220,77.86,11111222 
COMPS,ioos:station:USF.COMPS:C12:1,2019-09-10T07:35:00,27.4980,-83.7220,81.69,11111222 
COMPS,ioos:station:USF.COMPS:C12:1,2019-09-10T08:35:00,27.4980,-83.7220,82.91,11111222 
COMPS,ioos:station:USF.COMPS:C12:1,2019-09-10T09:35:00,27.4980,-83.7220,83.87,11111222 
COMPS,ioos:station:USF.COMPS:C12:1,2019-09-10T10:35:00,27.4980,-83.7220,83.12,11111222 
COMPS,ioos:station:USF.COMPS:C12:1,2019-09-10T11:35:00,27.4980,-83.7220,81.18,11111222 
COMPS,ioos:station:USF.COMPS:C12:1,2019-09-10T12:35:00,27.4980,-83.7220,81.65,11111222 
COMPS,ioos:station:USF.COMPS:C12:1,2019-09-10T13:35:00,27.4980,-83.7220,80.58,11111222 
COMPS,ioos:station:USF.COMPS:C12:1,2019-09-10T14:35:00,27.4980,-83.7220,81.17,11111222 
COMPS,ioos:station:USF.COMPS:C12:1,2019-09-10T15:35:00,27.4980,-83.7220,81.51,11111222 
COMPS,ioos:station:USF.COMPS:C12:1,2019-09-10T16:35:00,27.4980,-83.7220,78.27,11111222 
COMPS,ioos:station:USF.COMPS:C12:1,2019-09-10T17:35:00,27.4980,-83.7220,81.21,11111222 
COMPS,ioos:station:USF.COMPS:C12:1,2019-09-10T18:35:00,27.4980,-83.7220,80.92,11111222 
COMPS,ioos:station:USF.COMPS:C12:1,2019-09-10T19:35:00,27.4980,-83.7220,79.3,11111222 
COMPS,ioos:station:USF.COMPS:C12:1,2019-09-10T20:25:00,27.4980,-83.7220,76.25,11111222 
COMPS,ioos:station:USF.COMPS:C12:1,2019-09-10T21:35:00,27.4980,-83.7220,73.31,11111222 
COMPS,ioos:station:USF.COMPS:C12:1,2019-09-10T22:35:00,27.4980,-83.7220,73.76,11111222 
COMPS,ioos:station:USF.COMPS:C12:1,2019-09-10T23:35:00,27.4980,-83.7220,75.35,11111222 
COMPS,ioos:station:USF.COMPS:C12:1,2019-09-11T00:35:00,27.4980,-83.7220,78.01,11111222 
COMPS,ioos:station:USF.COMPS:C12:1,2019-09-11T01:35:00,27.4980,-83.7220,79.7,11111222 
COMPS,ioos:station:USF.COMPS:C12:1,2019-09-11T02:35:00,27.4980,-83.7220,80.26,11111222 
COMPS,ioos:station:USF.COMPS:C12:1,2019-09-11T03:35:00,27.4980,-83.7220,76.26,11111222 
COMPS,ioos:station:USF.COMPS:C12:1,2019-09-11T04:35:00,27.4980,-83.7220,76.37,11111222 
COMPS,ioos:station:USF.COMPS:C12:1,2019-09-11T05:35:00,27.4980,-83.7220,77.11,11111222 
COMPS,ioos:station:USF.COMPS:C12:1,2019-09-11T06:35:00,27.4980,-83.7220,79.71,11111222 
COMPS,ioos:station:USF.COMPS:C12:1,2019-09-11T07:35:00,27.4980,-83.7220,79.63,11111222 
COMPS,ioos:station:USF.COMPS:C12:1,2019-09-11T08:35:00,27.4980,-83.7220,78.33,11111222 
COMPS,ioos:station:USF.COMPS:C12:1,2019-09-11T09:35:00,27.4980,-83.7220,77.24,11111222 
COMPS,ioos:station:USF.COMPS:C12:1,2019-09-11T10:35:00,27.4980,-83.7220,78.63,11111222 
COMPS,ioos:station:USF.COMPS:C12:1,2019-09-11T11:35:00,27.4980,-83.7220,76.18,11111222 
COMPS,ioos:station:USF.COMPS:C12:1,2019-09-11T12:35:00,27.4980,-83.7220,74.71,11111222 
COMPS,ioos:station:USF.COMPS:C12:1,2019-09-11T13:35:00,27.4980,-83.7220,75.47,11111222 
COMPS,ioos:station:USF.COMPS:C12:1,2019-09-11T14:35:00,27.4980,-83.7220,77.75,11111222 
COMPS,ioos:station:USF.COMPS:C12:1,2019-09-11T15:35:00,27.4980,-83.7220,78.46,11111222 
COMPS,ioos:station:USF.COMPS:C12:1,2019-09-11T16:35:00,27.4980,-83.7220,79.17,11111222 
COMPS,ioos:station:USF.COMPS:C12:1,2019-09-11T17:35:00,27.4980,-83.7220,78.35,11111222 
COMPS,ioos:station:USF.COMPS:C12:1,2019-09-11T18:35:00,27.4980,-83.7220,76.71,11111222 
COMPS,ioos:station:USF.COMPS:C12:1,2019-09-11T19:35:00,27.4980,-83.7220,78.49,11111222 
COMPS,ioos:station:USF.COMPS:C12:1,2019-09-11T20:35:00,27.4980,-83.7220,76.15,11111222 
COMPS,ioos:station:USF.COMPS:C12:1,2019-09-11T21:35:00,27.4980,-83.7220,78.45,11111222 
COMPS,ioos:station:USF.COMPS:C12:1,2019-09-11T22:35:00,27.4980,-83.7220,75.84,11111222 
COMPS,ioos:station:USF.COMPS:C12:1,2019-09-11T23:35:00,27.4980,-83.7220,76.36,11111222 
COMPS,ioos:station:USF.COMPS:C12:1,2019-09-12T01:35:00,27.4980,-83.7220,76.02,11111222 
COMPS,ioos:station:USF.COMPS:C12:1,2019-09-12T02:35:00,27.4980,-83.7220,78.92,11111222 
COMPS,ioos:station:USF.COMPS:C12:1,2019-09-12T03:35:00,27.4980,-83.7220,73.92,11111222 
COMPS,ioos:station:USF.COMPS:C12:1,2019-09-12T04:35:00,27.4980,-83.7220,73.39,11111222 
COMPS,ioos:station:USF.COMPS:C12:1,2019-09-12T05:35:00,27.4980,-83.7220,75.58,11111222 
COMPS,ioos:station:USF.COMPS:C12:1,2019-09-12T06:35:00,27.4980,-83.7220,75.0,11111222 
COMPS,ioos:station:USF.COMPS:C12:1,2019-09-12T07:35:00,27.4980,-83.7220,75.14,11111222 
COMPS,ioos:station:USF.COMPS:C12:1,2019-09-12T08:35:00,27.4980,-83.7220,77.77,11111222 
COMPS,ioos:station:USF.COMPS:C12:1,2019-09-12T09:35:00,27.4980,-83.7220,77.26,11111222 
COMPS,ioos:station:USF.COMPS:C12:1,2019-09-12T10:35:00,27.4980,-83.7220,79.12,11111222 
COMPS,ioos:station:USF.COMPS:C12:1,2019-09-12T11:35:00,27.4980,-83.7220,80.16,11111222 
COMPS,ioos:station:USF.COMPS:C12:1,2019-09-12T12:35:00,27.4980,-83.7220,79.52,11111222 
COMPS,ioos:station:USF.COMPS:C12:1,2019-09-12T13:35:00,27.4980,-83.7220,77.46,11111222 
COMPS,ioos:station:USF.COMPS:C12:1,2019-09-12T14:35:00,27.4980,-83.7220,77.09,11111222 
COMPS,ioos:station:USF.COMPS:C12:1,2019-09-13T19:35:00,27.4980,-83.7220,86.27,11111222 